User: anonymous
Location: Albany
(35.0000°S, 118.0000°E)
Time: 10:27:27
(UTC-04:00)
Language:

Transit 2A - Orbit

View from above orbital plane
View from above orbital plane
View from above satellite
View from above satellite

Ground track
Ground track

The orbit data is extracted from the following two-line orbital elements,

1 00045U 60007A   14112.69496010  .00000400  00000-0  12904-3 0  1205
2 00045 066.6946 182.4821 0253562 152.8336 339.8804 14.32960993800543
Epoch (UTC): 22 April 2014 16:40:44
Eccentricity: 0.0253562
inclination: 66.6946°
perigee height: 600 km
apogee height: 963 km
right ascension of ascending node: 182.4821°
argument of perigee: 152.8336°
revolutions per day: 14.32960993
mean anomaly at epoch: 339.8804°
orbit number at epoch: 80054

The dashed part of the orbit path shows where the satellite is in the earth's shadow,  

DLR